When you browse on this site, cookies collect data to enhance your experience and personalize the content and advertising you see.
Visit our Privacy Policy to learn more. By continuing to use the site, you agree to this use of cookies and data.
  • în România
  • Lista ţărilor
  • Pe 7 zile
  • Temperatura apei
  • Meteo pe hartă
  • Widget-uri
  • user-avatar
    Intrare

    Meteo pe oră la Morpeth

    Astăzi, 25 Mai, Luni

    Timp Temperatura Precipitaţii Vânt Presiune Umiditate
    00:00 +10°C° 0 mm 3 m/s 768 mmHg 91%
    01:00 +9°C° 0 mm 3 m/s 768 mmHg 90%
    02:00 +9°C° 0 mm 2 m/s 768 mmHg 90%
    03:00 +8°C° 0 mm 2 m/s 768 mmHg 90%
    04:00 +9°C° 0 mm 2 m/s 768 mmHg 87%
    05:00 +10°C° 0 mm 2 m/s 768 mmHg 84%
    06:00 +12°C° 0 mm 2 m/s 768 mmHg 82%
    07:00 +14°C° 0 mm 2 m/s 768 mmHg 76%
    08:00 +14°C° 0 mm 3 m/s 768 mmHg 71%
    09:00 +17°C° 0 mm 3 m/s 768 mmHg 65%
    10:00 +18°C° 0 mm 4 m/s 768 mmHg 63%
    11:00 +18°C° 0 mm 4 m/s 768 mmHg 60%
    12:00 +17°C° 0 mm 5 m/s 768 mmHg 58%
    13:00 +17°C° 0 mm 5 m/s 768 mmHg 57%
    14:00 +17°C° 0 mm 6 m/s 768 mmHg 56%
    15:00 +17°C° 0 mm 6 m/s 768 mmHg 56%
    16:00 +16°C° 0 mm 5 m/s 768 mmHg 59%
    17:00 +15°C° 0 mm 5 m/s 768 mmHg 62%
    18:00 +15°C° 0 mm 5 m/s 768 mmHg 65%
    19:00 +13°C° 0 mm 4 m/s 768 mmHg 68%
    20:00 +12°C° 0 mm 3 m/s 768 mmHg 71%
    21:00 +11°C° 0 mm 3 m/s 769 mmHg 75%
    22:00 +11°C° 0 mm 3 m/s 769 mmHg 73%
    23:00 +11°C° 0 mm 3 m/s 769 mmHg 72%

    Mâine, 26 Mai, Marţi

    Timp Temperatura Precipitaţii Vânt Presiune Umiditate
    00:00 +12°C° 0 mm 3 m/s 768 mmHg 71%
    01:00 +11°C° 0 mm 3 m/s 768 mmHg 73%
    02:00 +11°C° 0 mm 3 m/s 768 mmHg 76%
    03:00 +11°C° 0 mm 3 m/s 768 mmHg 79%
    04:00 +11°C° 0 mm 3 m/s 769 mmHg 80%
    05:00 +12°C° 0 mm 4 m/s 769 mmHg 81%
    06:00 +12°C° 0 mm 4 m/s 769 mmHg 82%
    07:00 +13°C° 0 mm 4 m/s 769 mmHg 80%
    08:00 +15°C° 0 mm 4 m/s 769 mmHg 78%
    09:00 +16°C° 0 mm 5 m/s 769 mmHg 75%
    10:00 +17°C° 0 mm 4 m/s 770 mmHg 72%
    11:00 +18°C° 0 mm 4 m/s 770 mmHg 68%
    12:00 +19°C° 0 mm 4 m/s 770 mmHg 65%
    13:00 +19°C° 0 mm 4 m/s 770 mmHg 62%
    14:00 +19°C° 0 mm 4 m/s 770 mmHg 60%
    15:00 +19°C° 0 mm 4 m/s 770 mmHg 57%
    16:00 +18°C° 0 mm 3 m/s 770 mmHg 61%
    17:00 +17°C° 0 mm 3 m/s 770 mmHg 64%
    18:00 +17°C° 0 mm 2 m/s 770 mmHg 68%
    19:00 +15°C° 0 mm 2 m/s 771 mmHg 72%
    20:00 +13°C° 0 mm 2 m/s 771 mmHg 77%
    21:00 +12°C° 0 mm 2 m/s 771 mmHg 81%
    22:00 +10°C° 0 mm 3 m/s 771 mmHg 82%
    23:00 +9°C° 0 mm 3 m/s 771 mmHg 82%

    Poimâine, 27 Mai, Miercuri

    Timp Temperatura Precipitaţii Vânt Presiune Umiditate
    00:00 +8°C° 0 mm 3 m/s 772 mmHg 82%
    01:00 +8°C° 0 mm 3 m/s 772 mmHg 82%
    02:00 +8°C° 0 mm 3 m/s 772 mmHg 81%
    03:00 +8°C° 0 mm 3 m/s 772 mmHg 81%
    04:00 +8°C° 0 mm 3 m/s 772 mmHg 80%
    05:00 +9°C° 0 mm 3 m/s 772 mmHg 78%
    06:00 +8°C° 0 mm 4 m/s 772 mmHg 77%
    07:00 +10°C° 0 mm 4 m/s 772 mmHg 74%
    08:00 +11°C° 0 mm 4 m/s 772 mmHg 71%
    09:00 +13°C° 0 mm 4 m/s 773 mmHg 68%
    10:00 +13°C° 0 mm 4 m/s 773 mmHg 67%
    11:00 +14°C° 0 mm 4 m/s 772 mmHg 65%
    12:00 +14°C° 0 mm 3 m/s 772 mmHg 63%
    13:00 +14°C° 0 mm 3 m/s 772 mmHg 65%
    14:00 +14°C° 0 mm 4 m/s 772 mmHg 66%
    15:00 +14°C° 0 mm 4 m/s 772 mmHg 68%
    16:00 +14°C° 0 mm 4 m/s 772 mmHg 71%
    17:00 +13°C° 0 mm 4 m/s 772 mmHg 75%
    18:00 +12°C° 0 mm 4 m/s 772 mmHg 78%
    19:00 +11°C° 0 mm 3 m/s 772 mmHg 82%
    20:00 +10°C° 0 mm 3 m/s 772 mmHg 86%
    21:00 +8°C° 0 mm 2 m/s 772 mmHg 91%
    22:00 +9°C° 0 mm 2 m/s 771 mmHg 89%
    23:00 +9°C° 0 mm 2 m/s 771 mmHg 88%

    28 Mai, Joi

    Timp Temperatura Precipitaţii Vânt Presiune Umiditate
    00:00 +9°C° 0 mm 2 m/s 771 mmHg 87%
    01:00 +9°C° 0 mm 2 m/s 771 mmHg 86%
    02:00 +10°C° 0 mm 2 m/s 770 mmHg 84%
    03:00 +10°C° 0 mm 2 m/s 770 mmHg 82%
    04:00 +12°C° 0 mm 2 m/s 770 mmHg 81%
    05:00 +12°C° 0 mm 2 m/s 769 mmHg 81%
    06:00 +13°C° 0 mm 2 m/s 769 mmHg 80%
    07:00 +14°C° 0 mm 2 m/s 769 mmHg 77%
    08:00 +15°C° 0 mm 2 m/s 769 mmHg 74%
    09:00 +16°C° 0 mm 2 m/s 769 mmHg 72%
    10:00 +17°C° 0.1 mm 2 m/s 768 mmHg 72%
    11:00 +18°C° 0.1 mm 1 m/s 768 mmHg 72%
    12:00 +19°C° 0.1 mm 1 m/s 768 mmHg 73%
    13:00 +19°C° 0.1 mm 1 m/s 767 mmHg 72%
    14:00 +19°C° 0.1 mm 2 m/s 767 mmHg 72%
    15:00 +19°C° 0.1 mm 2 m/s 767 mmHg 72%
    16:00 +18°C° 0 mm 2 m/s 767 mmHg 74%
    17:00 +18°C° 0 mm 2 m/s 766 mmHg 77%
    18:00 +17°C° 0 mm 2 m/s 766 mmHg 79%
    19:00 +16°C° 0 mm 2 m/s 766 mmHg 82%
    20:00 +14°C° 0 mm 1 m/s 766 mmHg 85%
    21:00 +13°C° 0 mm 1 m/s 766 mmHg 88%
    22:00 +12°C° 0 mm 1 m/s 766 mmHg 89%
    23:00 +12°C° 0 mm 1 m/s 766 mmHg 89%

    29 Mai, Vineri

    Timp Temperatura Precipitaţii Vânt Presiune Umiditate
    00:00 +11°C° 0 mm 0 m/s 766 mmHg 89%
    01:00 +10°C° 0 mm 0 m/s 766 mmHg 89%
    02:00 +11°C° 0 mm 1 m/s 765 mmHg 90%
    03:00 +11°C° 0 mm 1 m/s 765 mmHg 90%
    04:00 +12°C° 0 mm 1 m/s 765 mmHg 89%
    05:00 +13°C° 0 mm 1 m/s 765 mmHg 88%
    06:00 +14°C° 0 mm 1 m/s 764 mmHg 86%
    07:00 +15°C° 0 mm 1 m/s 764 mmHg 82%
    08:00 +16°C° 0 mm 2 m/s 764 mmHg 78%
    09:00 +17°C° 0 mm 2 m/s 764 mmHg 74%
    10:00 +17°C° 0 mm 3 m/s 764 mmHg 73%
    11:00 +17°C° 0 mm 3 m/s 764 mmHg 73%
    12:00 +17°C° 0 mm 4 m/s 764 mmHg 73%
    13:00 +17°C° 0 mm 4 m/s 764 mmHg 72%
    14:00 +18°C° 0 mm 4 m/s 763 mmHg 72%
    15:00 +17°C° 0 mm 5 m/s 763 mmHg 72%
    16:00 +16°C° 0 mm 5 m/s 763 mmHg 74%
    17:00 +16°C° 0 mm 5 m/s 763 mmHg 77%
    18:00 +15°C° 0 mm 5 m/s 763 mmHg 79%
    19:00 +14°C° 0 mm 5 m/s 763 mmHg 81%
    20:00 +13°C° 0 mm 5 m/s 763 mmHg 83%
    21:00 +12°C° 0 mm 5 m/s 764 mmHg 85%
    22:00 +12°C° 0 mm 5 m/s 764 mmHg 84%
    23:00 +10°C° 0 mm 5 m/s 764 mmHg 83%

    30 Mai, Sâmbătă

    Timp Temperatura Precipitaţii Vânt Presiune Umiditate
    00:00 +10°C° 0 mm 5 m/s 764 mmHg 82%
    01:00 +10°C° 0 mm 5 m/s 764 mmHg 81%
    02:00 +10°C° 0 mm 4 m/s 763 mmHg 81%
    03:00 +10°C° 0 mm 4 m/s 763 mmHg 81%
    04:00 +10°C° 0 mm 4 m/s 763 mmHg 80%
    05:00 +11°C° 0 mm 4 m/s 763 mmHg 79%
    06:00 +11°C° 0 mm 3 m/s 764 mmHg 79%
    07:00 +12°C° 0 mm 4 m/s 764 mmHg 77%
    08:00 +13°C° 0 mm 4 m/s 764 mmHg 76%
    09:00 +14°C° 0 mm 4 m/s 764 mmHg 74%
    10:00 +15°C° 0 mm 4 m/s 764 mmHg 72%
    11:00 +17°C° 0 mm 4 m/s 764 mmHg 69%
    12:00 +18°C° 0 mm 4 m/s 764 mmHg 67%
    13:00 +18°C° 0 mm 4 m/s 763 mmHg 66%
    14:00 +19°C° 0 mm 4 m/s 763 mmHg 65%
    15:00 +19°C° 0 mm 4 m/s 763 mmHg 65%
    16:00 +18°C° 0 mm 4 m/s 763 mmHg 68%
    17:00 +18°C° 0 mm 4 m/s 763 mmHg 71%
    18:00 +17°C° 0 mm 4 m/s 762 mmHg 74%
    19:00 +15°C° 0 mm 4 m/s 763 mmHg 78%
    20:00 +13°C° 0 mm 4 m/s 763 mmHg 82%
    21:00 +12°C° 0 mm 3 m/s 763 mmHg 87%
    22:00 +12°C° 0 mm 3 m/s 763 mmHg 86%
    23:00 +12°C° 0 mm 3 m/s 763 mmHg 86%
    Arată mai mult